Hallock, MN

8:55 PM CDT on July 27, 2016 (GMT -0500)
Hallock Municipal

Weather History for KHCO - April, 2013

Change the Weather History Date:

Wednesday, April 10, 2013

  Actual Average Record
Temperature  
Mean Temperature 22 °F -  
Max Temperature 32 °F 47 °F 81 °F (1977)
Min Temperature 12 °F 26 °F 5 °F (1989)
Degree Days  
Heating Degree Days 43    
Moisture  
Dew Point 19 °F    
Average Humidity 83    
Maximum Humidity 93    
Minimum Humidity 64    
Precipitation  
Precipitation 0.00 in - - ()
Sea Level Pressure  
Sea Level Pressure 30.25 in    
Wind  
Wind Speed 6 mph (NNW)    
Max Wind Speed 18 mph    
Max Gust Speed -    
Visibility 10 miles    
Events      
Averages and records for this station are not official NWS values.
T = Trace of Precipitation, MM = Missing Value Source: NWS Daily Summary

Daily Weather History Graph

Daily Weather History Graph

Search for Another Location

Airport or City:

Trip Planner

Search our weather history database for the weather conditions in past years. The results will help you decide how hot, cold, wet, or windy it might be!

Date:

Astronomy

Apr. 10, 2013 Rise Set
Actual Time 6:46 AM CDT 8:12 PM CDT
Civil Twilight 6:13 AM CDT 8:45 PM CDT
Nautical Twilight 5:34 AM CDT 9:25 PM CDT
Astronomical Twilight 4:51 AM CDT 10:08 PM CDT
Moon 6:40 AM CDT (4/10) 8:55 PM CDT (4/10)
Length of Visible Light 14h 31m
Length of Day
13h 26m
New Moon, 0% of the Moon is Illuminated
Apr 10
New Moon
Apr 18
First Quarter
Apr 25
Full
May 2
Last Quarter
May 9
New

Hourly Weather History & Observations

Time (CDT) Temp. Windchill Dew Point Humidity Pressure Visibility Wind Dir Wind Speed Gust Speed Precip Events Conditions
12:14 AM 15.8 °F - 14.0 °F 93% 30.34 in 10.0 mi Calm Calm - N/A   Clear
12:34 AM 15.8 °F 10.2 °F 14.0 °F 93% 30.34 in 10.0 mi North 3.5 mph - N/A   Clear
12:52 AM 15.8 °F 10.2 °F 14.0 °F 93% 30.34 in 10.0 mi NNW 3.5 mph - N/A   Clear
1:14 AM 15.8 °F 10.2 °F 12.2 °F 86% 30.34 in 10.0 mi NNW 3.5 mph - N/A   Clear
1:33 AM 15.8 °F 7.2 °F 12.2 °F 86% 30.33 in 10.0 mi North 5.8 mph - N/A   Clear
1:54 AM 15.8 °F 7.2 °F 14.0 °F 93% 30.34 in 10.0 mi North 5.8 mph - N/A   Clear
2:14 AM 17.6 °F 9.3 °F 15.8 °F 93% 30.35 in 10.0 mi NNW 5.8 mph - N/A   Clear
2:33 AM 15.8 °F 8.6 °F 14.0 °F 93% 30.37 in 10.0 mi NW 4.6 mph - N/A   Clear
2:54 AM 14.0 °F 5.1 °F 12.2 °F 93% 30.37 in 10.0 mi NW 5.8 mph - N/A   Clear
3:12 AM 14.0 °F 5.1 °F 12.2 °F 93% 30.38 in 10.0 mi NW 5.8 mph - N/A   Clear
3:34 AM 14.0 °F - 12.2 °F 93% 30.36 in 10.0 mi Calm Calm - N/A   Clear
7:02 AM 12.2 °F - 10.4 °F 92% 30.29 in 10.0 mi Calm Calm - N/A   Clear
7:14 AM 12.2 °F - 10.4 °F 92% 30.29 in 10.0 mi Calm Calm - N/A   Clear
7:34 AM 12.2 °F 6.1 °F 10.4 °F 92% 30.31 in 10.0 mi West 3.5 mph - N/A   Clear
7:54 AM 12.2 °F 2.9 °F 10.4 °F 92% 30.32 in 10.0 mi WNW 5.8 mph - N/A   Clear
8:14 AM 12.2 °F 2.9 °F 10.4 °F 92% 30.35 in 10.0 mi WNW 5.8 mph - N/A   Clear
8:34 AM 12.2 °F 1.7 °F 10.4 °F 92% 30.34 in 10.0 mi NW 6.9 mph - N/A   Clear
8:53 AM 12.2 °F 4.3 °F 10.4 °F 92% 30.35 in 10.0 mi NW 4.6 mph - N/A   Clear
9:14 AM 15.8 °F - 12.2 °F 86% 30.33 in 10.0 mi Calm Calm - N/A   Clear
9:34 AM 17.6 °F 9.3 °F 14.0 °F 86% 30.32 in 10.0 mi NNE 5.8 mph - N/A   Clear
9:53 AM 17.6 °F 9.3 °F 14.0 °F 86% 30.31 in 10.0 mi North 5.8 mph - N/A   Clear
10:14 AM 19.4 °F 11.5 °F 15.8 °F 86% 30.30 in 10.0 mi North 5.8 mph - N/A   Clear
10:33 AM 19.4 °F 12.8 °F 15.8 °F 86% 30.30 in 10.0 mi NNE 4.6 mph - N/A   Clear
10:54 AM 21.2 °F 12.6 °F 15.8 °F 80% 30.30 in 10.0 mi North 6.9 mph - N/A   Clear
11:14 AM 24.8 °F 19.1 °F 17.6 °F 74% 30.31 in 10.0 mi NNE 4.6 mph - N/A   Clear
11:33 AM 26.6 °F 22.6 °F 17.6 °F 69% 30.31 in 10.0 mi North 3.5 mph - N/A   Clear
11:54 AM 26.6 °F 19.1 °F 21.2 °F 80% 30.30 in 10.0 mi NNW 6.9 mph - N/A   Clear
12:14 PM 28.4 °F 21.2 °F 21.2 °F 74% 30.30 in 10.0 mi NNW 6.9 mph - N/A   Clear
12:33 PM 28.4 °F 23.3 °F 21.2 °F 74% 30.29 in 10.0 mi NW 4.6 mph - N/A   Clear
12:54 PM 28.4 °F 20.4 °F 21.2 °F 74% 30.29 in 10.0 mi NW 8.1 mph - N/A   Clear
1:14 PM 30.2 °F 22.6 °F 21.2 °F 69% 30.28 in 10.0 mi NW 8.1 mph - N/A   Clear
1:33 PM 30.2 °F 21.3 °F 21.2 °F 69% 30.27 in 10.0 mi NNW 10.4 mph - N/A   Clear
1:54 PM 30.2 °F 20.8 °F 23.0 °F 75% 30.26 in 10.0 mi NNW 11.5 mph - N/A   Clear
2:14 PM 30.2 °F 22.6 °F 24.8 °F 80% 30.27 in 10.0 mi NNW 8.1 mph - N/A   Clear
2:34 PM 30.2 °F 20.8 °F 24.8 °F 80% 30.27 in 10.0 mi North 11.5 mph - N/A   Clear
2:54 PM 30.2 °F 21.3 °F 23.0 °F 75% 30.26 in 10.0 mi NNW 10.4 mph - N/A   Clear
3:14 PM 30.2 °F 21.9 °F 23.0 °F 75% 30.25 in 10.0 mi NNW 9.2 mph - N/A   Clear
3:34 PM 32.0 °F 22.5 °F 21.2 °F 64% 30.23 in 10.0 mi NNW 12.7 mph - N/A   Clear
3:53 PM 32.0 °F 24.2 °F 23.0 °F 69% 30.22 in 10.0 mi NNW 9.2 mph - N/A   Clear
4:14 PM 32.0 °F 23.0 °F 23.0 °F 69% 30.21 in 10.0 mi NNW 11.5 mph - N/A   Clear
4:34 PM 32.0 °F 21.6 °F 23.0 °F 69% 30.20 in 10.0 mi NNW 15.0 mph - N/A   Clear
4:53 PM 32.0 °F 23.6 °F 24.8 °F 75% 30.19 in 10.0 mi NNW 10.4 mph - N/A   Clear
5:14 PM 32.0 °F 23.6 °F 21.2 °F 64% 30.18 in 10.0 mi North 10.4 mph - N/A   Clear
5:34 PM 32.0 °F 24.2 °F 24.8 °F 75% 30.19 in 10.0 mi NNW 9.2 mph - N/A   Clear
5:53 PM 32.0 °F 23.6 °F 24.8 °F 75% 30.19 in 10.0 mi NNW 10.4 mph - N/A   Clear
6:14 PM 32.0 °F 20.5 °F 24.8 °F 75% 30.18 in 10.0 mi NNW 18.4 mph - N/A   Clear
6:34 PM 32.0 °F 22.1 °F 26.6 °F 80% 30.17 in 10.0 mi NNW 13.8 mph - N/A   Clear
6:53 PM 30.2 °F 21.3 °F 26.6 °F 86% 30.17 in 10.0 mi North 10.4 mph - N/A   Clear
7:14 PM 32.0 °F 23.6 °F 26.6 °F 80% 30.17 in 10.0 mi North 10.4 mph - N/A   Clear
7:34 PM 30.2 °F 21.3 °F 24.8 °F 80% 30.16 in 10.0 mi North 10.4 mph - N/A   Clear
7:53 PM 30.2 °F 21.9 °F 24.8 °F 80% 30.15 in 10.0 mi North 9.2 mph - N/A   Clear
8:14 PM 28.4 °F 21.2 °F 24.8 °F 86% 30.15 in 10.0 mi NNW 6.9 mph - N/A   Clear
8:34 PM 28.4 °F 19.1 °F 24.8 °F 86% 30.16 in 10.0 mi NNW 10.4 mph - N/A   Clear
8:53 PM 28.4 °F 19.7 °F 24.8 °F 86% 30.16 in 10.0 mi NNW 9.2 mph - N/A   Clear
9:14 PM 28.4 °F 19.1 °F 24.8 °F 86% 30.15 in 10.0 mi North 10.4 mph - N/A   Clear
9:34 PM 28.4 °F 18.5 °F 24.8 °F 86% 30.14 in 10.0 mi North 11.5 mph - N/A   Clear
9:53 PM 28.4 °F 18.5 °F 24.8 °F 86% 30.12 in 10.0 mi North 11.5 mph - N/A   Clear
10:14 PM 26.6 °F 16.8 °F 24.8 °F 93% 30.11 in 10.0 mi North 10.4 mph - N/A   Clear
10:34 PM 26.6 °F 17.5 °F 23.0 °F 86% 30.11 in 10.0 mi North 9.2 mph - N/A   Clear
10:53 PM 24.8 °F 16.9 °F 21.2 °F 86% 30.10 in 10.0 mi NNE 6.9 mph - N/A   Clear
11:14 PM 24.8 °F 19.1 °F 21.2 °F 86% 30.10 in 10.0 mi NE 4.6 mph - N/A   Clear
11:34 PM 23.0 °F 17.0 °F 19.4 °F 86% 30.09 in 10.0 mi NNE 4.6 mph - N/A   Clear
11:53 PM 23.0 °F 13.9 °F 19.4 °F 86% 30.09 in 10.0 mi North 8.1 mph - N/A   Clear